THOR ABLESTAR DEB, 463

Orbit data source: Space-Track

THOR ABLESTAR DEB, 463 is space debris in LEO originally from a launch on Thu, 29 Jun 1961 UTC launched from the Air Force Eastern Test Range (AFETR). Debris objects in space refer to the collection of defunct objects orbiting the Earth. Examples of debris include non-operational satellites, rocket bodies, and fragments generated from explosions, collisions, or faulty payload assembly.

Loading next visibility...
Identifier
463, 1961-015EZ
Orbit
LEO
Country
Flag of USUS
Related business
Manufacturer
Unknown
Mission
Spacecraft
Bus & Motor
Unknown
Mass
Unknown
Launch date (UTC)
1961-06-29 (64 years ago)
Launch vehicle
Unknown
Launch site
Air Force Eastern Test Range (AFETR)
Object type
Payload
Rocket body
Debris
Shape & HBR
Unknown shape, 0.1 m
Radar Cross Section
Small (<0.1 m²)

Expand to show TLE details & history
Last TLE update: 19 hours ago

TLE from 19 hours ago
0 THOR ABLESTAR DEB
1   463U 61015EZ  25318.17898767  .00007155  00000-0  16331-2 0  9992
2   463  66.7668 274.4093 0037845  57.4815 302.9944 14.55838793337816
Epoch: 2025-11-14T04:17Z
TLE epoch observation values (Epoch: 2025-11-14T04:17:44.534Z)
Latitude
-0.00007°
Longitude
156.44751°
Altitude
694.249 km
Speed
7.517 km/s
True Right ascension
18h 17m 38s
True Declination
0° 00' 00"
Sunlit
Object was in daylight at epoch
Visualization orbit readout
Latitude
Unknown
Longitude
Unknown
Altitude
Unknown
Speed
Unknown
Apparent Right ascension
Unknown
Apparent Declination
Unknown
Sunlit
N/A
Visualization observer readout
Local Sidereal Time
20:18:59
Azimuth
Unknown
Elevation
Unknown
Doppler factor
Unknown
Orbital elements
Apogee altitude
731.796 km
Perigee altitude
678.183 km
Semi-major axis
7,083.127 km
Eccentricity
0.00378
Inclination
66.7668°
RAAN
274.4093°
Arg. of periapsis
57.4815°
True anomaly
302.62973°
Mean anomaly
302.9944°
Eccentric anomaly
302.81216°
Mean motion
3.64087 °/min
Orbital period
98.88 mins
BSTAR
0.0016331

Documentation

Showing up to 5 results
|